Weather History for Dalhart, TX

Change the Weather History Date:

Wednesday, February 6, 2013

  Actual Average Record
Temperature  
Mean Temperature 47 °F 36 °F  
Max Temperature 71 °F 51 °F 76 °F (2009)
Min Temperature 23 °F 21 °F -7 °F (1982)
Degree Days  
Heating Degree Days 18 29  
Month to date heating degree days 132 174  
Since 1 July heating degree days 2698 3056  
Cooling Degree Days 0 0  
Month to date cooling degree days 0 0  
Year to date cooling degree days 0 0  
Moisture  
Dew Point 18 °F    
Average Humidity 43    
Maximum Humidity 74    
Minimum Humidity 12    
Precipitation  
Precipitation 0.00 in 0.01 in 0.40 in (2005)
Month to date precipitation 0.00 0.09  
Year to date precipitation 0.17 0.61  
Snow  
Snow 0.00 in 0.10 in 2.00 in (2011)
Month to date snowfall 0.0 0.8  
Since 1 July snowfall 4.5 11.3  
Snow Depth 0.00 in    
Sea Level Pressure  
Sea Level Pressure 29.81 in    
Wind  
Wind Speed 12 mph (SW)    
Max Wind Speed 30 mph    
Max Gust Speed 37 mph    
Visibility 10 miles    
Events      
T = Trace of Precipitation, MM = Missing Value Source: NWS Daily Summary

Daily Weather History Graph

Daily Weather History Graph

Search for Another Location

Airport:

Trip Planner

Search our weather history database for the weather conditions in past years. The results will help you decide how hot, cold, wet, or windy it might be!

Date:

Astronomy

Feb. 06, 2013 Rise Set
Actual Time 7:46 AM CST 6:22 PM CST
Civil Twilight 7:19 AM CST 6:49 PM CST
Nautical Twilight 6:49 AM CST 7:19 PM CST
Astronomical Twilight 6:19 AM CST 7:49 PM CST
Moon 4:28 AM CST (2/6) 2:46 PM CST (2/6)
Length of Visible Light 11h 29m
Length of Day
10h 36m
Waning Crescent, 17% of the Moon is Illuminated
Feb 6
Waning Crescent
Feb 10
New
Feb 17
First Quarter
Feb 25
Full
Mar 4
Last Quarter

Hourly Weather History & Observations

Time (CST) Temp. Windchill Dew Point Humidity Pressure Visibility Wind Dir Wind Speed Gust Speed Precip Events Conditions
12:53 AM 33.8 °F 27.7 °F 19.4 °F 56% 29.99 in 10.0 mi South 6.9 mph - N/A   Clear
1:53 AM 34.0 °F 29.8 °F 19.9 °F 56% 29.94 in 10.0 mi SW 4.6 mph - N/A   Clear
2:53 AM 30.2 °F 22.6 °F 19.4 °F 64% 29.96 in 10.0 mi SW 8.1 mph - N/A   Clear
3:53 AM 28.9 °F 22.8 °F 18.0 °F 64% 29.91 in 10.0 mi WSW 5.8 mph - N/A   Clear
4:53 AM 27.0 °F 18.7 °F 18.0 °F 69% 29.91 in 10.0 mi WSW 8.1 mph - N/A   Clear
5:53 AM 26.6 °F 19.1 °F 17.6 °F 69% 29.92 in 10.0 mi West 6.9 mph - N/A   Clear
6:53 AM 25.0 °F 16.3 °F 17.1 °F 72% 29.91 in 10.0 mi WSW 8.1 mph - N/A   Clear
7:53 AM 24.1 °F 17.0 °F 16.0 °F 71% 29.91 in 10.0 mi SW 5.8 mph - N/A   Clear
8:53 AM 32.0 °F 24.8 °F 21.0 °F 64% 29.90 in 10.0 mi SSW 8.1 mph - N/A   Clear
9:53 AM 44.1 °F 38.1 °F 24.1 °F 45% 29.87 in 10.0 mi South 11.5 mph - N/A   Clear
10:53 AM 50.0 °F - 21.0 °F 32% 29.84 in 10.0 mi South 12.7 mph - N/A   Clear
11:53 AM 55.0 °F - 19.9 °F 25% 29.80 in 10.0 mi South 21.9 mph 26.5 mph N/A   Clear
12:53 PM 61.0 °F - 19.0 °F 20% 29.75 in 10.0 mi SSW 23.0 mph - N/A   Clear
1:53 PM 66.9 °F - 17.1 °F 15% 29.70 in 10.0 mi SW 21.9 mph 31.1 mph N/A   Clear
2:53 PM 70.0 °F - 16.0 °F 13% 29.67 in 10.0 mi SW 25.3 mph 33.4 mph N/A   Clear
3:53 PM 70.0 °F - 15.1 °F 12% 29.66 in 10.0 mi WSW 20.7 mph 26.5 mph N/A   Clear
4:53 PM 70.0 °F - 15.1 °F 12% 29.66 in 10.0 mi WSW 17.3 mph - N/A   Clear
5:53 PM 62.1 °F - 16.0 °F 17% 29.68 in 10.0 mi SW 9.2 mph - N/A   Clear
6:53 PM 50.0 °F - 19.9 °F 31% 29.72 in 10.0 mi SSW 9.2 mph - N/A   Clear
7:53 PM 57.0 °F - 18.0 °F 22% 29.74 in 10.0 mi NW 10.4 mph 19.6 mph N/A   Clear
8:53 PM 52.0 °F - 19.0 °F 27% 29.75 in 10.0 mi WNW 8.1 mph - N/A   Clear
9:53 PM 51.1 °F - 17.1 °F 26% 29.73 in 10.0 mi North 12.7 mph - N/A   Clear
10:53 PM 48.0 °F - 18.0 °F 30% 29.74 in 10.0 mi North 11.5 mph - N/A   Clear
11:53 PM 48.9 °F - 21.0 °F 33% 29.75 in 10.0 mi North 19.6 mph 26.5 mph N/A   Clear